Time,TemperatureF,DewpointF,PressureIn,WindDirection,WindDirectionDegrees,WindSpeedMPH,WindSpeedGustMPH,Humidity,HourlyPrecipIn,Conditions,Clouds,dailyrainin,SolarRadiationWatts/m^2,SoftwareType,DateUTC
2013-05-18 00:01:00,55.0,49.3,30.25,SSE,168,0.0,4.0,81,0.00,,,0.00,0.0,meteohub,2013-05-18 04:01:00,
2013-05-18 00:02:00,55.0,49.3,30.25,South,170,0.0,4.0,81,0.00,,,0.00,0.0,meteohub,2013-05-18 04:02:00,
2013-05-18 00:03:00,55.0,49.3,30.25,South,170,0.0,4.0,81,0.00,,,0.00,0.0,meteohub,2013-05-18 04:03:00,
2013-05-18 00:08:00,54.9,49.1,30.25,SE,138,1.0,4.0,81,0.00,,,0.00,0.0,meteohub,2013-05-18 04:08:00,
2013-05-18 00:13:00,54.9,49.1,30.26,SE,134,1.0,3.0,81,0.00,,,0.00,0.0,meteohub,2013-05-18 04:13:00,
2013-05-18 00:18:00,54.7,48.9,30.25,SSW,194,0.0,3.0,81,0.00,,,0.00,0.0,meteohub,2013-05-18 04:18:00,
2013-05-18 00:23:00,54.7,48.9,30.25,SSE,153,0.0,3.0,81,0.00,,,0.00,0.0,meteohub,2013-05-18 04:23:00,
2013-05-18 00:28:00,54.7,48.6,30.25,South,170,0.0,3.0,80,0.00,,,0.00,0.0,meteohub,2013-05-18 04:28:00,
2013-05-18 00:33:00,54.7,48.4,30.25,SSE,163,1.0,4.0,79,0.00,,,0.00,0.0,meteohub,2013-05-18 04:33:00,
2013-05-18 00:38:00,54.7,48.4,30.25,South,175,0.0,4.0,79,0.00,,,0.00,0.0,meteohub,2013-05-18 04:38:00,
2013-05-18 00:44:00,54.7,48.6,30.25,South,180,2.0,4.0,80,0.00,,,0.00,0.0,meteohub,2013-05-18 04:44:00,
2013-05-18 00:49:00,54.7,48.6,30.25,SSE,159,1.0,4.0,80,0.00,,,0.00,0.0,meteohub,2013-05-18 04:49:00,
2013-05-18 00:54:00,54.7,48.6,30.25,South,173,2.0,4.0,80,0.00,,,0.00,0.0,meteohub,2013-05-18 04:54:00,
2013-05-18 00:59:00,54.7,48.6,30.25,South,171,1.0,4.0,80,0.00,,,0.00,0.0,meteohub,2013-05-18 04:59:00,
2013-05-18 01:04:00,54.7,48.9,30.25,SSW,198,0.0,2.0,81,0.00,,,0.00,0.0,meteohub,2013-05-18 05:04:00,
2013-05-18 01:09:00,54.7,49.3,30.25,SSW,194,2.0,3.0,82,0.00,,,0.00,0.0,meteohub,2013-05-18 05:09:00,
2013-05-18 01:14:00,54.7,49.6,30.25,SE,139,2.0,3.0,83,0.00,,,0.00,0.0,meteohub,2013-05-18 05:14:00,
2013-05-18 01:19:00,54.7,50.0,30.25,SSE,159,1.0,5.0,84,0.00,,,0.00,0.0,meteohub,2013-05-18 05:19:00,
2013-05-18 01:24:00,54.5,49.8,30.25,SSE,159,0.0,5.0,84,0.00,,,0.00,0.0,meteohub,2013-05-18 05:24:00,
2013-05-18 01:29:00,54.3,49.8,30.26,South,188,0.0,5.0,85,0.00,,,0.00,0.0,meteohub,2013-05-18 05:29:00,
2013-05-18 01:34:00,54.3,50.2,30.26,South,186,0.0,3.0,86,0.00,,,0.00,0.0,meteohub,2013-05-18 05:34:00,
2013-05-18 01:39:00,54.1,50.0,30.26,SSW,204,1.0,3.0,86,0.00,,,0.00,0.0,meteohub,2013-05-18 05:39:00,
2013-05-18 01:45:00,54.0,50.2,30.26,South,172,0.0,3.0,87,0.00,,,0.00,0.0,meteohub,2013-05-18 05:45:00,
2013-05-18 01:50:00,54.0,50.2,30.26,SSW,208,1.0,2.0,87,0.00,,,0.00,0.0,meteohub,2013-05-18 05:50:00,
2013-05-18 01:55:00,53.8,50.0,30.26,South,173,1.0,3.0,87,0.00,,,0.00,0.0,meteohub,2013-05-18 05:55:00,
2013-05-18 02:00:00,53.8,50.0,30.26,SSE,161,1.0,3.0,87,0.00,,,0.00,0.0,meteohub,2013-05-18 06:00:00,
2013-05-18 02:05:00,53.4,50.0,30.26,SSW,211,1.0,2.0,88,0.00,,,0.00,0.0,meteohub,2013-05-18 06:05:00,
2013-05-18 02:10:00,53.2,49.8,30.26,South,170,1.0,3.0,88,0.00,,,0.00,0.0,meteohub,2013-05-18 06:10:00,
2013-05-18 02:15:00,53.2,49.8,30.26,SSW,198,0.0,3.0,88,0.00,,,0.00,0.0,meteohub,2013-05-18 06:15:00,
2013-05-18 02:20:00,53.2,49.8,30.26,SSW,198,0.0,3.0,88,0.00,,,0.00,0.0,meteohub,2013-05-18 06:20:00,
2013-05-18 02:25:00,53.1,49.6,30.26,SSW,192,0.0,2.0,88,0.00,,,0.00,0.0,meteohub,2013-05-18 06:25:00,
2013-05-18 02:30:00,52.9,49.5,30.26,South,190,0.0,2.0,88,0.00,,,0.00,0.0,meteohub,2013-05-18 06:30:00,
2013-05-18 02:35:00,52.7,49.3,30.26,South,188,0.0,2.0,88,0.00,,,0.00,0.0,meteohub,2013-05-18 06:35:00,
2013-05-18 02:41:00,52.5,49.1,30.26,South,179,0.0,2.0,88,0.00,,,0.00,0.0,meteohub,2013-05-18 06:41:00,
2013-05-18 02:46:00,52.3,49.3,30.26,South,179,0.0,1.0,89,0.00,,,0.00,0.0,meteohub,2013-05-18 06:46:00,
2013-05-18 02:51:00,52.3,48.9,30.26,South,180,0.0,1.0,88,0.00,,,0.00,0.0,meteohub,2013-05-18 06:51:00,
2013-05-18 02:56:00,52.3,49.3,30.26,SSW,194,0.0,1.0,89,0.00,,,0.00,0.0,meteohub,2013-05-18 06:56:00,
2013-05-18 03:01:00,52.2,49.1,30.26,SSW,194,0.0,1.0,89,0.00,,,0.00,0.0,meteohub,2013-05-18 07:01:00,
2013-05-18 03:06:00,52.2,48.7,30.26,SSW,194,0.0,1.0,88,0.00,,,0.00,0.0,meteohub,2013-05-18 07:06:00,
2013-05-18 03:11:00,52.2,48.7,30.26,SSW,194,0.0,1.0,88,0.00,,,0.00,0.0,meteohub,2013-05-18 07:11:00,
2013-05-18 03:16:00,52.2,48.7,30.26,SSE,161,1.0,2.0,88,0.00,,,0.00,0.0,meteohub,2013-05-18 07:16:00,
2013-05-18 03:21:00,52.2,48.7,30.26,SSE,162,0.0,2.0,88,0.00,,,0.00,0.0,meteohub,2013-05-18 07:21:00,
2013-05-18 03:26:00,52.3,48.9,30.26,South,186,0.0,2.0,88,0.00,,,0.00,0.0,meteohub,2013-05-18 07:26:00,
2013-05-18 03:31:00,52.3,48.9,30.26,South,176,2.0,2.0,88,0.00,,,0.00,0.0,meteohub,2013-05-18 07:31:00,
2013-05-18 03:37:00,52.3,48.6,30.26,South,184,0.0,3.0,87,0.00,,,0.00,0.0,meteohub,2013-05-18 07:37:00,
2013-05-18 03:42:00,52.3,48.6,30.27,South,171,0.0,3.0,87,0.00,,,0.00,0.0,meteohub,2013-05-18 07:42:00,
2013-05-18 03:47:00,52.2,48.4,30.27,SSW,194,0.0,3.0,87,0.00,,,0.00,0.0,meteohub,2013-05-18 07:47:00,
2013-05-18 03:52:00,52.0,48.2,30.27,SSW,194,0.0,2.0,87,0.00,,,0.00,0.0,meteohub,2013-05-18 07:52:00,
2013-05-18 03:57:00,51.8,48.0,30.27,SSW,194,0.0,2.0,87,0.00,,,0.00,0.0,meteohub,2013-05-18 07:57:00,
2013-05-18 04:02:00,51.6,47.8,30.27,SSW,194,0.0,1.0,87,0.00,,,0.00,0.0,meteohub,2013-05-18 08:02:00,
2013-05-18 04:07:00,51.4,48.0,30.27,SSW,194,1.0,1.0,88,0.00,,,0.00,0.0,meteohub,2013-05-18 08:07:00,
2013-05-18 04:12:00,51.4,48.0,30.27,South,188,0.0,1.0,88,0.00,,,0.00,0.0,meteohub,2013-05-18 08:12:00,
2013-05-18 04:17:00,51.4,48.0,30.28,South,188,1.0,1.0,88,0.00,,,0.00,0.0,meteohub,2013-05-18 08:17:00,
2013-05-18 04:22:00,51.4,48.0,30.28,SSW,203,0.0,1.0,88,0.00,,,0.00,0.0,meteohub,2013-05-18 08:22:00,
2013-05-18 04:27:00,51.4,48.0,30.28,SSW,203,0.0,1.0,88,0.00,,,0.00,0.0,meteohub,2013-05-18 08:27:00,
2013-05-18 04:32:00,51.4,48.0,30.28,SSW,203,0.0,1.0,88,0.00,,,0.00,0.0,meteohub,2013-05-18 08:32:00,
2013-05-18 04:37:00,51.4,48.0,30.28,SSE,160,0.0,1.0,88,0.00,,,0.00,0.0,meteohub,2013-05-18 08:37:00,
2013-05-18 04:42:00,51.4,48.0,30.28,SSE,160,0.0,1.0,88,0.00,,,0.00,0.0,meteohub,2013-05-18 08:42:00,
2013-05-18 04:47:00,51.4,48.0,30.28,SSE,160,0.0,1.0,88,0.00,,,0.00,0.0,meteohub,2013-05-18 08:47:00,
2013-05-18 04:52:00,51.6,48.2,30.28,SSE,160,0.0,1.0,88,0.00,,,0.00,0.0,meteohub,2013-05-18 08:52:00,
2013-05-18 04:57:00,51.6,48.2,30.28,SSE,160,0.0,1.0,88,0.00,,,0.00,0.0,meteohub,2013-05-18 08:57:00,
2013-05-18 05:02:00,51.6,48.2,30.29,SSE,160,0.0,1.0,88,0.00,,,0.00,0.0,meteohub,2013-05-18 09:02:00,
2013-05-18 05:07:00,51.4,47.7,30.29,SSE,160,0.0,1.0,87,0.00,,,0.00,0.0,meteohub,2013-05-18 09:07:00,
2013-05-18 05:12:00,51.4,48.0,30.29,SSE,160,0.0,1.0,88,0.00,,,0.00,0.0,meteohub,2013-05-18 09:12:00,
2013-05-18 05:17:00,51.4,48.0,30.29,SSE,160,0.0,1.0,88,0.00,,,0.00,0.0,meteohub,2013-05-18 09:17:00,
2013-05-18 05:22:00,51.4,48.0,30.29,SSE,160,0.0,1.0,88,0.00,,,0.00,0.0,meteohub,2013-05-18 09:22:00,
2013-05-18 05:27:00,51.1,47.7,30.30,SSW,198,1.0,2.0,88,0.00,,,0.00,7.0,meteohub,2013-05-18 09:27:00,
2013-05-18 05:32:00,50.9,47.8,30.30,SSW,198,0.0,3.0,89,0.00,,,0.00,11.0,meteohub,2013-05-18 09:32:00,
2013-05-18 05:37:00,51.1,48.0,30.30,SSW,198,0.0,3.0,89,0.00,,,0.00,16.0,meteohub,2013-05-18 09:37:00,
2013-05-18 05:42:00,51.1,48.0,30.30,SSW,198,0.0,2.0,89,0.00,,,0.00,21.0,meteohub,2013-05-18 09:42:00,
2013-05-18 05:47:00,51.3,48.2,30.30,SSW,198,0.0,0.0,89,0.00,,,0.00,28.0,meteohub,2013-05-18 09:47:00,
2013-05-18 05:52:00,51.3,48.2,30.30,SSW,198,0.0,0.0,89,0.00,,,0.00,35.0,meteohub,2013-05-18 09:52:00,
2013-05-18 05:57:00,51.4,48.6,30.30,SSW,198,0.0,1.0,90,0.00,,,0.00,44.0,meteohub,2013-05-18 09:57:00,
2013-05-18 06:02:00,51.4,48.6,30.31,SSW,198,0.0,1.0,90,0.00,,,0.00,51.0,meteohub,2013-05-18 10:02:00,
2013-05-18 06:07:00,51.8,48.9,30.31,SSW,198,0.0,1.0,90,0.00,,,0.00,58.0,meteohub,2013-05-18 10:07:00,
2013-05-18 06:12:00,52.0,48.9,30.31,SSW,198,0.0,0.0,89,0.00,,,0.00,69.0,meteohub,2013-05-18 10:12:00,
2013-05-18 06:17:00,52.2,49.1,30.32,SSW,198,0.0,1.0,89,0.00,,,0.00,88.0,meteohub,2013-05-18 10:17:00,
2013-05-18 06:22:00,52.5,49.5,30.32,SSW,198,0.0,1.0,89,0.00,,,0.00,107.0,meteohub,2013-05-18 10:22:00,
2013-05-18 06:27:00,53.1,49.6,30.32,ESE,103,0.0,2.0,88,0.00,,,0.00,114.0,meteohub,2013-05-18 10:27:00,
2013-05-18 06:32:00,53.4,50.0,30.32,SSE,165,0.0,2.0,88,0.00,,,0.00,107.0,meteohub,2013-05-18 10:32:00,
2013-05-18 06:37:00,54.0,49.8,30.32,SSE,165,0.0,2.0,86,0.00,,,0.00,128.0,meteohub,2013-05-18 10:37:00,
2013-05-18 06:42:00,54.3,49.8,30.32,SSW,206,0.0,1.0,85,0.00,,,0.00,127.0,meteohub,2013-05-18 10:42:00,
2013-05-18 06:47:00,54.9,50.2,30.33,SSW,206,0.0,1.0,84,0.00,,,0.00,181.0,meteohub,2013-05-18 10:47:00,
2013-05-18 06:52:00,55.2,50.5,30.33,SSW,206,0.0,1.0,84,0.00,,,0.00,204.0,meteohub,2013-05-18 10:52:00,
2013-05-18 06:57:00,55.9,50.5,30.32,SSW,206,0.0,1.0,82,0.00,,,0.00,216.0,meteohub,2013-05-18 10:57:00,
2013-05-18 07:02:00,56.5,50.4,30.33,SW,223,2.0,2.0,80,0.00,,,0.00,207.0,meteohub,2013-05-18 11:02:00,
2013-05-18 07:07:00,57.0,50.2,30.33,SW,223,0.0,4.0,78,0.00,,,0.00,183.0,meteohub,2013-05-18 11:07:00,
2013-05-18 07:12:00,57.4,50.2,30.33,SW,223,0.0,4.0,77,0.00,,,0.00,195.0,meteohub,2013-05-18 11:12:00,
2013-05-18 07:17:00,57.7,49.8,30.33,SW,221,0.0,4.0,75,0.00,,,0.00,220.0,meteohub,2013-05-18 11:17:00,
2013-05-18 07:22:00,58.1,49.8,30.34,SW,222,0.0,3.0,74,0.00,,,0.00,162.0,meteohub,2013-05-18 11:22:00,
2013-05-18 07:27:00,58.5,49.8,30.34,WSW,242,0.0,3.0,73,0.00,,,0.00,251.0,meteohub,2013-05-18 11:27:00,
2013-05-18 07:32:00,58.8,49.8,30.34,WSW,244,0.0,3.0,72,0.00,,,0.00,264.0,meteohub,2013-05-18 11:32:00,
2013-05-18 07:37:00,59.0,49.6,30.34,SSW,213,1.0,4.0,71,0.00,,,0.00,239.0,meteohub,2013-05-18 11:37:00,
2013-05-18 07:42:00,59.2,49.8,30.34,SW,234,1.0,5.0,71,0.00,,,0.00,204.0,meteohub,2013-05-18 11:42:00,
2013-05-18 07:47:00,59.4,49.6,30.34,SSW,205,2.0,5.0,70,0.00,,,0.00,248.0,meteohub,2013-05-18 11:47:00,
2013-05-18 07:52:00,59.5,49.8,30.34,WSW,242,0.0,5.0,70,0.00,,,0.00,406.0,meteohub,2013-05-18 11:52:00,
2013-05-18 07:57:00,60.1,50.2,30.34,West,259,0.0,3.0,70,0.00,,,0.00,355.0,meteohub,2013-05-18 11:57:00,
2013-05-18 08:02:00,60.3,50.0,30.34,WSW,238,1.0,4.0,69,0.00,,,0.00,297.0,meteohub,2013-05-18 12:02:00,
2013-05-18 08:07:00,60.4,49.5,30.34,West,278,0.0,4.0,67,0.00,,,0.00,348.0,meteohub,2013-05-18 12:07:00,
2013-05-18 08:12:00,60.6,49.6,30.34,SSE,161,1.0,4.0,67,0.00,,,0.00,332.0,meteohub,2013-05-18 12:12:00,
2013-05-18 08:17:00,61.0,50.0,30.34,WSW,251,1.0,4.0,67,0.00,,,0.00,325.0,meteohub,2013-05-18 12:17:00,
2013-05-18 08:22:00,61.2,49.3,30.34,South,188,2.0,4.0,65,0.00,,,0.00,388.0,meteohub,2013-05-18 12:22:00,
2013-05-18 08:27:00,61.3,49.5,30.35,South,187,0.0,6.0,65,0.00,,,0.00,441.0,meteohub,2013-05-18 12:27:00,
2013-05-18 08:32:00,61.9,50.0,30.35,SSE,157,0.0,6.0,65,0.00,,,0.00,369.0,meteohub,2013-05-18 12:32:00,
2013-05-18 08:37:00,62.1,49.3,30.35,SW,221,4.0,6.0,63,0.00,,,0.00,378.0,meteohub,2013-05-18 12:37:00,
2013-05-18 08:42:00,62.4,50.0,30.35,SSW,208,0.0,6.0,64,0.00,,,0.00,432.0,meteohub,2013-05-18 12:42:00,
2013-05-18 08:47:00,62.8,48.7,30.35,WNW,293,2.0,6.0,60,0.00,,,0.00,316.0,meteohub,2013-05-18 12:47:00,
2013-05-18 08:52:00,63.0,49.8,30.35,WSW,238,0.0,8.0,62,0.00,,,0.00,543.0,meteohub,2013-05-18 12:52:00,
2013-05-18 08:57:00,63.7,50.9,30.35,SW,232,1.0,8.0,63,0.00,,,0.00,571.0,meteohub,2013-05-18 12:57:00,
2013-05-18 09:02:00,64.0,50.4,30.35,WSW,240,0.0,8.0,61,0.00,,,0.00,455.0,meteohub,2013-05-18 13:02:00,
2013-05-18 09:07:00,64.4,50.2,30.36,SSW,195,0.0,7.0,60,0.00,,,0.00,598.0,meteohub,2013-05-18 13:07:00,
2013-05-18 09:12:00,64.8,50.5,30.36,WSW,237,0.0,7.0,60,0.00,,,0.00,594.0,meteohub,2013-05-18 13:12:00,
2013-05-18 09:17:00,65.1,50.9,30.36,WNW,292,2.0,7.0,60,0.00,,,0.00,629.0,meteohub,2013-05-18 13:17:00,
2013-05-18 09:22:00,65.1,50.9,30.35,SE,127,1.0,5.0,60,0.00,,,0.00,545.0,meteohub,2013-05-18 13:22:00,
2013-05-18 09:27:00,65.1,50.9,30.35,SSE,157,2.0,6.0,60,0.00,,,0.00,635.0,meteohub,2013-05-18 13:27:00,
2013-05-18 09:32:00,65.5,52.2,30.36,SSE,164,3.0,6.0,62,0.00,,,0.00,657.0,meteohub,2013-05-18 13:32:00,
2013-05-18 09:37:00,65.5,51.6,30.36,SSW,210,1.0,6.0,61,0.00,,,0.00,659.0,meteohub,2013-05-18 13:37:00,
2013-05-18 09:42:00,65.5,51.6,30.36,SSE,161,1.0,5.0,61,0.00,,,0.00,633.0,meteohub,2013-05-18 13:42:00,
2013-05-18 09:47:00,65.7,51.8,30.36,WSW,238,0.0,9.0,61,0.00,,,0.00,629.0,meteohub,2013-05-18 13:47:00,
2013-05-18 09:52:00,65.7,51.8,30.36,SSW,198,1.0,9.0,61,0.00,,,0.00,668.0,meteohub,2013-05-18 13:52:00,
2013-05-18 09:57:00,65.7,52.3,30.36,SE,144,0.0,5.0,62,0.00,,,0.00,654.0,meteohub,2013-05-18 13:57:00,
2013-05-18 10:02:00,66.0,53.1,30.36,WNW,290,0.0,6.0,63,0.00,,,0.00,663.0,meteohub,2013-05-18 14:02:00,
2013-05-18 10:07:00,66.0,52.2,30.36,SSW,196,0.0,6.0,61,0.00,,,0.00,689.0,meteohub,2013-05-18 14:07:00,
2013-05-18 10:12:00,65.8,52.5,30.36,WSW,246,3.0,5.0,62,0.00,,,0.00,705.0,meteohub,2013-05-18 14:12:00,
2013-05-18 10:17:00,65.5,52.5,30.36,West,273,1.0,7.0,63,0.00,,,0.00,737.0,meteohub,2013-05-18 14:17:00,
2013-05-18 10:22:00,65.5,52.5,30.36,SSW,196,2.0,7.0,63,0.00,,,0.00,800.0,meteohub,2013-05-18 14:22:00,
2013-05-18 10:27:00,65.5,52.2,30.36,ESE,113,3.0,7.0,62,0.00,,,0.00,812.0,meteohub,2013-05-18 14:27:00,
2013-05-18 10:32:00,65.7,52.3,30.36,South,190,2.0,8.0,62,0.00,,,0.00,740.0,meteohub,2013-05-18 14:32:00,
2013-05-18 10:37:00,65.7,52.7,30.36,SE,136,1.0,8.0,63,0.00,,,0.00,844.0,meteohub,2013-05-18 14:37:00,
2013-05-18 10:42:00,66.4,53.4,30.36,SSW,208,1.0,7.0,63,0.00,,,0.00,858.0,meteohub,2013-05-18 14:42:00,
2013-05-18 10:47:00,66.9,53.1,30.36,SSE,165,4.0,8.0,61,0.00,,,0.00,846.0,meteohub,2013-05-18 14:47:00,
2013-05-18 10:52:00,66.7,52.9,30.36,SSE,163,2.0,8.0,61,0.00,,,0.00,860.0,meteohub,2013-05-18 14:52:00,
2013-05-18 10:57:00,66.6,53.1,30.36,WSW,245,0.0,8.0,62,0.00,,,0.00,853.0,meteohub,2013-05-18 14:57:00,
2013-05-18 11:02:00,66.9,53.1,30.36,South,186,1.0,8.0,61,0.00,,,0.00,889.0,meteohub,2013-05-18 15:02:00,
2013-05-18 11:07:00,67.5,53.6,30.36,WSW,241,3.0,8.0,61,0.00,,,0.00,902.0,meteohub,2013-05-18 15:07:00,
2013-05-18 11:12:00,67.6,53.2,30.36,NW,304,4.0,6.0,60,0.00,,,0.00,909.0,meteohub,2013-05-18 15:12:00,
2013-05-18 11:17:00,68.2,53.8,30.36,South,177,3.0,7.0,60,0.00,,,0.00,925.0,meteohub,2013-05-18 15:17:00,
2013-05-18 11:22:00,67.8,52.9,30.36,West,281,2.0,7.0,59,0.00,,,0.00,823.0,meteohub,2013-05-18 15:22:00,
2013-05-18 11:27:00,67.5,53.1,30.36,South,172,3.0,8.0,60,0.00,,,0.00,645.0,meteohub,2013-05-18 15:27:00,
2013-05-18 11:32:00,67.5,52.7,30.36,South,185,2.0,8.0,59,0.00,,,0.00,631.0,meteohub,2013-05-18 15:32:00,
2013-05-18 11:37:00,67.3,52.0,30.36,South,175,6.0,10.0,58,0.00,,,0.00,870.0,meteohub,2013-05-18 15:37:00,
2013-05-18 11:42:00,66.7,52.3,30.36,SE,139,3.0,10.0,60,0.00,,,0.00,912.0,meteohub,2013-05-18 15:42:00,
2013-05-18 11:47:00,67.1,53.6,30.35,South,183,4.0,10.0,62,0.00,,,0.00,956.0,meteohub,2013-05-18 15:47:00,
2013-05-18 11:52:00,67.5,53.1,30.36,South,191,4.0,7.0,60,0.00,,,0.00,933.0,meteohub,2013-05-18 15:52:00,
2013-05-18 11:57:00,67.6,53.8,30.35,SSW,194,0.0,7.0,61,0.00,,,0.00,932.0,meteohub,2013-05-18 15:57:00,
2013-05-18 12:02:00,67.6,53.8,30.36,SSW,202,3.0,7.0,61,0.00,,,0.00,905.0,meteohub,2013-05-18 16:02:00,
2013-05-18 12:07:00,67.3,53.8,30.36,West,269,4.0,7.0,62,0.00,,,0.00,807.0,meteohub,2013-05-18 16:07:00,
2013-05-18 12:12:00,66.9,54.0,30.35,SW,232,2.0,7.0,63,0.00,,,0.00,900.0,meteohub,2013-05-18 16:12:00,
2013-05-18 12:17:00,66.6,53.6,30.35,SSE,152,3.0,8.0,63,0.00,,,0.00,884.0,meteohub,2013-05-18 16:17:00,
2013-05-18 12:22:00,65.1,53.4,30.35,South,191,3.0,8.0,66,0.00,,,0.00,949.0,meteohub,2013-05-18 16:22:00,
2013-05-18 12:27:00,64.6,54.1,30.35,SSW,203,4.0,8.0,69,0.00,,,0.00,868.0,meteohub,2013-05-18 16:27:00,
2013-05-18 12:32:00,65.1,54.3,30.35,SW,217,4.0,8.0,68,0.00,,,0.00,946.0,meteohub,2013-05-18 16:32:00,
2013-05-18 12:37:00,65.7,54.0,30.35,SE,124,2.0,8.0,66,0.00,,,0.00,870.0,meteohub,2013-05-18 16:37:00,
2013-05-18 12:42:00,65.7,54.0,30.35,SE,134,2.0,7.0,66,0.00,,,0.00,921.0,meteohub,2013-05-18 16:42:00,
2013-05-18 12:47:00,66.0,53.4,30.35,South,169,3.0,9.0,64,0.00,,,0.00,965.0,meteohub,2013-05-18 16:47:00,
2013-05-18 12:52:00,66.2,53.6,30.35,South,174,3.0,9.0,64,0.00,,,0.00,896.0,meteohub,2013-05-18 16:52:00,
2013-05-18 12:57:00,66.4,54.3,30.35,SE,133,3.0,8.0,65,0.00,,,0.00,911.0,meteohub,2013-05-18 16:57:00,
2013-05-18 13:02:00,65.5,53.8,30.35,SSE,150,2.0,9.0,66,0.00,,,0.00,896.0,meteohub,2013-05-18 17:02:00,
2013-05-18 13:07:00,65.8,53.8,30.35,SSW,206,2.0,9.0,65,0.00,,,0.00,856.0,meteohub,2013-05-18 17:07:00,
2013-05-18 13:12:00,65.8,53.2,30.35,South,176,5.0,9.0,64,0.00,,,0.00,898.0,meteohub,2013-05-18 17:12:00,
2013-05-18 13:17:00,65.7,53.2,30.35,SE,131,3.0,8.0,64,0.00,,,0.00,937.0,meteohub,2013-05-18 17:17:00,
2013-05-18 13:22:00,65.7,53.6,30.35,South,169,7.0,8.0,65,0.00,,,0.00,886.0,meteohub,2013-05-18 17:22:00,
2013-05-18 13:27:00,65.7,54.0,30.35,SE,142,2.0,9.0,66,0.00,,,0.00,932.0,meteohub,2013-05-18 17:27:00,
2013-05-18 13:32:00,66.0,53.4,30.35,SSW,198,2.0,9.0,64,0.00,,,0.00,840.0,meteohub,2013-05-18 17:32:00,
2013-05-18 13:37:00,66.2,53.6,30.35,SSE,151,1.0,9.0,64,0.00,,,0.00,828.0,meteohub,2013-05-18 17:37:00,
2013-05-18 13:42:00,66.6,54.0,30.35,South,184,2.0,7.0,64,0.00,,,0.00,893.0,meteohub,2013-05-18 17:42:00,
2013-05-18 13:47:00,66.6,53.1,30.35,SE,129,1.0,7.0,62,0.00,,,0.00,712.0,meteohub,2013-05-18 17:47:00,
2013-05-18 13:52:00,66.0,53.1,30.35,SSW,203,1.0,8.0,63,0.00,,,0.00,782.0,meteohub,2013-05-18 17:52:00,
2013-05-18 13:57:00,66.0,53.4,30.35,West,259,5.0,8.0,64,0.00,,,0.00,773.0,meteohub,2013-05-18 17:57:00,
2013-05-18 14:02:00,66.0,53.4,30.34,SSE,152,3.0,9.0,64,0.00,,,0.00,721.0,meteohub,2013-05-18 18:02:00,
2013-05-18 14:07:00,65.8,53.2,30.35,SSW,199,3.0,9.0,64,0.00,,,0.00,635.0,meteohub,2013-05-18 18:07:00,
2013-05-18 14:12:00,65.5,53.1,30.34,SSW,200,3.0,9.0,64,0.00,,,0.00,568.0,meteohub,2013-05-18 18:12:00,
2013-05-18 14:17:00,65.1,53.1,30.34,SW,221,1.0,9.0,65,0.00,,,0.00,490.0,meteohub,2013-05-18 18:17:00,
2013-05-18 14:22:00,64.9,52.9,30.34,SW,230,0.0,9.0,65,0.00,,,0.00,455.0,meteohub,2013-05-18 18:22:00,
2013-05-18 14:27:00,64.9,53.2,30.34,SW,219,1.0,9.0,66,0.00,,,0.00,476.0,meteohub,2013-05-18 18:27:00,
2013-05-18 14:32:00,64.8,53.1,30.34,SE,136,3.0,6.0,66,0.00,,,0.00,482.0,meteohub,2013-05-18 18:32:00,
2013-05-18 14:37:00,64.8,53.1,30.34,South,188,1.0,6.0,66,0.00,,,0.00,519.0,meteohub,2013-05-18 18:37:00,
2013-05-18 14:42:00,64.6,52.9,30.34,SSE,167,2.0,6.0,66,0.00,,,0.00,517.0,meteohub,2013-05-18 18:42:00,
2013-05-18 14:47:00,64.6,52.9,30.34,SSW,207,3.0,6.0,66,0.00,,,0.00,462.0,meteohub,2013-05-18 18:47:00,
2013-05-18 14:52:00,64.6,52.9,30.34,SE,136,0.0,6.0,66,0.00,,,0.00,394.0,meteohub,2013-05-18 18:52:00,
2013-05-18 14:57:00,64.4,52.9,30.34,WSW,247,1.0,6.0,66,0.00,,,0.00,385.0,meteohub,2013-05-18 18:57:00,
2013-05-18 15:02:00,64.2,52.2,30.34,SW,225,1.0,6.0,65,0.00,,,0.00,399.0,meteohub,2013-05-18 19:02:00,
2013-05-18 15:07:00,64.2,52.7,30.34,ESE,122,2.0,7.0,66,0.00,,,0.00,422.0,meteohub,2013-05-18 19:07:00,
2013-05-18 15:12:00,64.0,52.9,30.34,SW,236,3.0,7.0,67,0.00,,,0.00,355.0,meteohub,2013-05-18 19:12:00,
2013-05-18 15:17:00,64.0,52.9,30.34,WSW,242,1.0,4.0,67,0.00,,,0.00,306.0,meteohub,2013-05-18 19:17:00,
2013-05-18 15:22:00,63.7,52.5,30.34,WSW,256,1.0,6.0,67,0.00,,,0.00,278.0,meteohub,2013-05-18 19:22:00,
2013-05-18 15:27:00,63.1,52.3,30.34,SE,144,4.0,6.0,68,0.00,,,0.00,267.0,meteohub,2013-05-18 19:27:00,
2013-05-18 15:32:00,62.8,52.5,30.34,SSW,205,3.0,6.0,69,0.00,,,0.00,255.0,meteohub,2013-05-18 19:32:00,
2013-05-18 15:37:00,62.4,52.2,30.35,SSW,212,2.0,7.0,69,0.00,,,0.00,236.0,meteohub,2013-05-18 19:37:00,
2013-05-18 15:42:00,62.2,52.0,30.34,SSE,163,2.0,7.0,69,0.00,,,0.00,207.0,meteohub,2013-05-18 19:42:00,
2013-05-18 15:47:00,62.1,52.2,30.34,SSE,160,2.0,7.0,70,0.00,,,0.00,181.0,meteohub,2013-05-18 19:47:00,
2013-05-18 15:52:00,61.9,52.0,30.34,South,175,0.0,5.0,70,0.00,,,0.00,172.0,meteohub,2013-05-18 19:52:00,
2013-05-18 15:57:00,61.7,52.2,30.34,South,171,2.0,5.0,71,0.00,,,0.00,167.0,meteohub,2013-05-18 19:57:00,
2013-05-18 16:02:00,61.5,52.0,30.34,SSW,196,1.0,7.0,71,0.00,,,0.00,163.0,meteohub,2013-05-18 20:02:00,
2013-05-18 16:07:00,61.3,51.8,30.34,SE,139,1.0,7.0,71,0.00,,,0.00,167.0,meteohub,2013-05-18 20:07:00,
2013-05-18 16:12:00,61.3,52.2,30.34,South,188,1.0,6.0,72,0.00,,,0.00,176.0,meteohub,2013-05-18 20:12:00,
2013-05-18 16:17:00,61.2,52.0,30.34,SSW,202,1.0,6.0,72,0.00,,,0.00,186.0,meteohub,2013-05-18 20:17:00,
2013-05-18 16:22:00,61.2,52.5,30.34,South,171,0.0,5.0,73,0.00,,,0.00,171.0,meteohub,2013-05-18 20:22:00,
2013-05-18 16:27:00,61.2,52.5,30.34,SW,214,0.0,5.0,73,0.00,,,0.00,144.0,meteohub,2013-05-18 20:27:00,
2013-05-18 16:32:00,61.2,52.9,30.35,WSW,243,2.0,7.0,74,0.00,,,0.00,137.0,meteohub,2013-05-18 20:32:00,
2013-05-18 16:37:00,61.0,52.7,30.35,WSW,249,1.0,7.0,74,0.00,,,0.00,137.0,meteohub,2013-05-18 20:37:00,
2013-05-18 16:42:00,60.8,52.5,30.35,SSW,202,2.0,4.0,74,0.00,,,0.00,162.0,meteohub,2013-05-18 20:42:00,
2013-05-18 16:47:00,60.4,52.2,30.35,South,175,5.0,6.0,74,0.00,,,0.00,172.0,meteohub,2013-05-18 20:47:00,
2013-05-18 16:52:00,60.4,52.5,30.35,SSW,213,2.0,6.0,75,0.00,,,0.00,148.0,meteohub,2013-05-18 20:52:00,
2013-05-18 16:57:00,60.4,52.5,30.35,WSW,246,4.0,6.0,75,0.00,,,0.00,128.0,meteohub,2013-05-18 20:57:00,
2013-05-18 17:02:00,60.4,52.5,30.35,South,180,0.0,6.0,75,0.00,,,0.00,128.0,meteohub,2013-05-18 21:02:00,
2013-05-18 17:07:00,60.4,52.5,30.35,WSW,246,2.0,6.0,75,0.00,,,0.00,120.0,meteohub,2013-05-18 21:07:00,
2013-05-18 17:12:00,60.3,52.7,30.35,SW,234,1.0,6.0,76,0.00,,,0.00,105.0,meteohub,2013-05-18 21:12:00,
2013-05-18 17:17:00,60.3,52.7,30.35,West,269,3.0,6.0,76,0.00,,,0.00,109.0,meteohub,2013-05-18 21:17:00,
2013-05-18 17:22:00,60.3,52.7,30.35,SSW,213,1.0,6.0,76,0.00,,,0.00,109.0,meteohub,2013-05-18 21:22:00,
2013-05-18 17:27:00,60.3,52.7,30.35,SE,143,0.0,6.0,76,0.00,,,0.00,113.0,meteohub,2013-05-18 21:27:00,
2013-05-18 17:32:00,60.1,52.9,30.35,SSW,198,0.0,5.0,77,0.00,,,0.00,104.0,meteohub,2013-05-18 21:32:00,
2013-05-18 17:37:00,59.9,53.1,30.35,WSW,237,0.0,5.0,78,0.00,,,0.00,91.0,meteohub,2013-05-18 21:37:00,
2013-05-18 17:42:00,59.7,53.2,30.35,WNW,292,0.0,5.0,79,0.00,,,0.00,74.0,meteohub,2013-05-18 21:42:00,
2013-05-18 17:47:00,59.5,53.1,30.35,SW,229,1.0,5.0,79,0.00,,,0.00,72.0,meteohub,2013-05-18 21:47:00,
2013-05-18 17:52:00,59.4,52.9,30.35,WSW,244,1.0,5.0,79,0.00,,,0.00,67.0,meteohub,2013-05-18 21:52:00,
2013-05-18 17:57:00,59.2,53.1,30.35,WSW,238,0.0,5.0,80,0.00,,,0.00,65.0,meteohub,2013-05-18 21:57:00,
2013-05-18 18:02:00,59.2,53.4,30.35,SW,225,0.0,8.0,81,0.00,,,0.00,63.0,meteohub,2013-05-18 22:02:00,
2013-05-18 18:07:00,59.0,53.2,30.35,SSE,159,0.0,8.0,81,0.00,,,0.00,54.0,meteohub,2013-05-18 22:07:00,
2013-05-18 18:12:00,59.0,53.2,30.35,West,264,0.0,5.0,81,0.00,,,0.00,51.0,meteohub,2013-05-18 22:12:00,
2013-05-18 18:17:00,59.0,53.2,30.35,South,183,0.0,5.0,81,0.00,,,0.00,51.0,meteohub,2013-05-18 22:17:00,
2013-05-18 18:22:00,59.2,53.4,30.35,SSW,211,0.0,4.0,81,0.00,,,0.00,54.0,meteohub,2013-05-18 22:22:00,
2013-05-18 18:27:00,59.2,53.4,30.35,SW,223,1.0,4.0,81,0.00,,,0.00,56.0,meteohub,2013-05-18 22:27:00,
2013-05-18 18:32:00,59.2,53.4,30.35,NW,307,0.0,5.0,81,0.00,,,0.00,56.0,meteohub,2013-05-18 22:32:00,
2013-05-18 18:37:00,59.2,53.4,30.35,SSW,205,2.0,5.0,81,0.00,,,0.00,44.0,meteohub,2013-05-18 22:37:00,
2013-05-18 18:42:00,59.2,53.4,30.35,South,184,0.0,5.0,81,0.00,,,0.00,39.0,meteohub,2013-05-18 22:42:00,
2013-05-18 18:47:00,59.2,53.4,30.35,SW,214,1.0,5.0,81,0.00,,,0.00,39.0,meteohub,2013-05-18 22:47:00,
2013-05-18 18:52:00,59.2,53.4,30.35,WSW,248,1.0,5.0,81,0.00,,,0.00,40.0,meteohub,2013-05-18 22:52:00,
2013-05-18 18:57:00,59.2,53.4,30.36,SSW,196,0.0,6.0,81,0.00,,,0.00,37.0,meteohub,2013-05-18 22:57:00,
2013-05-18 19:02:00,59.2,53.4,30.36,SSW,204,1.0,6.0,81,0.00,,,0.00,32.0,meteohub,2013-05-18 23:02:00,
2013-05-18 19:07:00,59.0,53.6,30.35,WSW,251,3.0,6.0,82,0.00,,,0.00,26.0,meteohub,2013-05-18 23:07:00,
2013-05-18 19:12:00,59.0,53.6,30.35,SSE,151,3.0,6.0,82,0.00,,,0.00,19.0,meteohub,2013-05-18 23:12:00,
2013-05-18 19:17:00,58.8,53.6,30.35,SE,140,0.0,6.0,83,0.00,,,0.00,19.0,meteohub,2013-05-18 23:17:00,
2013-05-18 19:22:00,58.6,53.4,30.35,WSW,256,0.0,6.0,83,0.00,,,0.00,18.0,meteohub,2013-05-18 23:22:00,
2013-05-18 19:27:00,58.6,53.4,30.35,WSW,238,2.0,6.0,83,0.00,,,0.00,14.0,meteohub,2013-05-18 23:27:00,
2013-05-18 19:32:00,58.5,53.6,30.35,SSW,213,5.0,5.0,84,0.00,,,0.00,14.0,meteohub,2013-05-18 23:32:00,
2013-05-18 19:37:00,58.5,53.6,30.36,West,264,1.0,7.0,84,0.00,,,0.00,19.0,meteohub,2013-05-18 23:37:00,
2013-05-18 19:42:00,58.5,53.6,30.36,South,186,2.0,7.0,84,0.00,,,0.00,19.0,meteohub,2013-05-18 23:42:00,
2013-05-18 19:47:00,58.5,53.6,30.36,WSW,247,0.0,7.0,84,0.00,,,0.00,16.0,meteohub,2013-05-18 23:47:00,
2013-05-18 19:52:00,58.3,53.1,30.36,SW,230,0.0,7.0,83,0.00,,,0.00,11.0,meteohub,2013-05-18 23:52:00,
2013-05-18 19:57:00,58.3,52.5,30.36,South,180,0.0,7.0,81,0.00,,,0.00,5.0,meteohub,2013-05-18 23:57:00,
2013-05-18 20:02:00,58.3,52.2,30.36,SW,232,2.0,6.0,80,0.00,,,0.00,0.0,meteohub,2013-05-19 00:02:00,
2013-05-18 20:07:00,57.9,51.4,30.36,SSW,200,0.0,6.0,79,0.00,,,0.00,0.0,meteohub,2013-05-19 00:07:00,
2013-05-18 20:12:00,57.9,51.4,30.36,SW,217,0.0,4.0,79,0.00,,,0.00,0.0,meteohub,2013-05-19 00:12:00,
2013-05-18 20:17:00,57.7,50.9,30.36,SSW,192,0.0,4.0,78,0.00,,,0.00,0.0,meteohub,2013-05-19 00:17:00,
2013-05-18 20:22:00,57.7,50.9,30.36,South,172,0.0,4.0,78,0.00,,,0.00,0.0,meteohub,2013-05-19 00:22:00,
2013-05-18 20:27:00,57.7,50.9,30.36,South,188,0.0,4.0,78,0.00,,,0.00,0.0,meteohub,2013-05-19 00:27:00,
2013-05-18 20:32:00,57.6,51.1,30.36,SW,233,0.0,4.0,79,0.00,,,0.00,0.0,meteohub,2013-05-19 00:32:00,
2013-05-18 20:37:00,57.4,50.9,30.36,SW,233,0.0,3.0,79,0.00,,,0.00,0.0,meteohub,2013-05-19 00:37:00,
2013-05-18 20:42:00,57.0,50.9,30.36,SSW,210,0.0,3.0,80,0.00,,,0.00,0.0,meteohub,2013-05-19 00:42:00,
2013-05-18 20:47:00,56.8,51.1,30.36,SSW,213,0.0,3.0,81,0.00,,,0.00,0.0,meteohub,2013-05-19 00:47:00,
2013-05-18 20:52:00,56.8,51.1,30.36,SSE,165,0.0,5.0,81,0.00,,,0.00,0.0,meteohub,2013-05-19 00:52:00,
2013-05-18 20:57:00,56.7,51.3,30.36,SSE,165,1.0,5.0,82,0.00,,,0.00,0.0,meteohub,2013-05-19 00:57:00,
2013-05-18 21:02:00,56.7,51.3,30.36,SSE,165,0.0,5.0,82,0.00,,,0.00,0.0,meteohub,2013-05-19 01:02:00,
2013-05-18 21:07:00,56.5,51.4,30.36,SSE,165,0.0,3.0,83,0.00,,,0.00,0.0,meteohub,2013-05-19 01:07:00,
2013-05-18 21:12:00,56.3,51.3,30.36,SSE,165,0.0,1.0,83,0.00,,,0.00,0.0,meteohub,2013-05-19 01:12:00,
2013-05-18 21:17:00,55.9,50.9,30.36,SSE,165,0.0,0.0,83,0.00,,,0.00,0.0,meteohub,2013-05-19 01:17:00,
2013-05-18 21:22:00,55.8,50.7,30.35,SSE,165,0.0,1.0,83,0.00,,,0.00,0.0,meteohub,2013-05-19 01:22:00,
2013-05-18 21:27:00,55.4,50.4,30.36,SSE,165,0.0,1.0,83,0.00,,,0.00,0.0,meteohub,2013-05-19 01:27:00,
2013-05-18 21:32:00,55.2,49.8,30.36,SSE,165,0.0,1.0,82,0.00,,,0.00,0.0,meteohub,2013-05-19 01:32:00,
2013-05-18 21:37:00,55.0,50.0,30.36,SSE,165,0.0,0.0,83,0.00,,,0.00,0.0,meteohub,2013-05-19 01:37:00,
2013-05-18 21:42:00,54.9,49.5,30.36,SSE,165,0.0,0.0,82,0.00,,,0.00,0.0,meteohub,2013-05-19 01:42:00,
2013-05-18 21:47:00,54.7,49.3,30.36,SSE,165,0.0,1.0,82,0.00,,,0.00,0.0,meteohub,2013-05-19 01:47:00,
2013-05-18 21:52:00,54.3,48.9,30.36,SSE,165,0.0,1.0,82,0.00,,,0.00,0.0,meteohub,2013-05-19 01:52:00,
2013-05-18 21:57:00,54.1,49.1,30.35,SSE,165,0.0,1.0,83,0.00,,,0.00,0.0,meteohub,2013-05-19 01:57:00,
2013-05-18 22:02:00,53.8,48.7,30.35,SSE,165,0.0,1.0,83,0.00,,,0.00,0.0,meteohub,2013-05-19 02:02:00,
2013-05-18 22:07:00,53.8,48.7,30.35,SSE,165,0.0,1.0,83,0.00,,,0.00,0.0,meteohub,2013-05-19 02:07:00,
2013-05-18 22:12:00,53.6,48.6,30.36,SSE,168,0.0,1.0,83,0.00,,,0.00,0.0,meteohub,2013-05-19 02:12:00,
2013-05-18 22:17:00,53.6,48.6,30.36,SSE,168,0.0,1.0,83,0.00,,,0.00,0.0,meteohub,2013-05-19 02:17:00,
2013-05-18 22:22:00,53.8,48.7,30.36,South,187,0.0,1.0,83,0.00,,,0.00,0.0,meteohub,2013-05-19 02:22:00,
2013-05-18 22:27:00,53.8,48.7,30.36,WSW,250,0.0,2.0,83,0.00,,,0.00,0.0,meteohub,2013-05-19 02:27:00,
2013-05-18 22:32:00,53.8,48.7,30.35,WSW,250,0.0,2.0,83,0.00,,,0.00,0.0,meteohub,2013-05-19 02:32:00,
2013-05-18 22:37:00,53.8,48.7,30.35,WSW,250,1.0,1.0,83,0.00,,,0.00,0.0,meteohub,2013-05-19 02:37:00,
2013-05-18 22:42:00,54.0,49.3,30.35,WSW,250,0.0,1.0,84,0.00,,,0.00,0.0,meteohub,2013-05-19 02:42:00,
2013-05-18 22:47:00,54.1,49.1,30.35,South,190,0.0,3.0,83,0.00,,,0.00,0.0,meteohub,2013-05-19 02:47:00,
2013-05-18 22:52:00,54.3,49.3,30.36,WSW,250,0.0,4.0,83,0.00,,,0.00,0.0,meteohub,2013-05-19 02:52:00,
2013-05-18 22:57:00,54.3,49.3,30.35,SW,236,0.0,4.0,83,0.00,,,0.00,0.0,meteohub,2013-05-19 02:57:00,
2013-05-18 23:02:00,54.5,49.5,30.36,South,187,0.0,4.0,83,0.00,,,0.00,0.0,meteohub,2013-05-19 03:02:00,
2013-05-18 23:07:00,54.5,49.5,30.35,WSW,244,1.0,3.0,83,0.00,,,0.00,0.0,meteohub,2013-05-19 03:07:00,
2013-05-18 23:12:00,54.5,49.1,30.35,SW,219,1.0,3.0,82,0.00,,,0.00,0.0,meteohub,2013-05-19 03:12:00,
2013-05-18 23:17:00,54.3,48.9,30.35,SW,223,0.0,2.0,82,0.00,,,0.00,0.0,meteohub,2013-05-19 03:17:00,
2013-05-18 23:22:00,54.3,48.6,30.35,SSW,192,0.0,2.0,81,0.00,,,0.00,0.0,meteohub,2013-05-19 03:22:00,
2013-05-18 23:27:00,54.3,48.2,30.35,South,171,0.0,3.0,80,0.00,,,0.00,0.0,meteohub,2013-05-19 03:27:00,
2013-05-18 23:32:00,54.3,48.2,30.35,SSW,209,0.0,3.0,80,0.00,,,0.00,0.0,meteohub,2013-05-19 03:32:00,
2013-05-18 23:37:00,54.3,48.0,30.35,SE,143,0.0,3.0,79,0.00,,,0.00,0.0,meteohub,2013-05-19 03:37:00,
2013-05-18 23:42:00,54.3,48.0,30.35,SE,144,0.0,3.0,79,0.00,,,0.00,0.0,meteohub,2013-05-19 03:42:00,
2013-05-18 23:47:00,54.3,47.7,30.35,SW,232,0.0,3.0,78,0.00,,,0.00,0.0,meteohub,2013-05-19 03:47:00,
2013-05-18 23:52:00,54.7,47.7,30.35,SSW,212,4.0,4.0,77,0.00,,,0.00,0.0,meteohub,2013-05-19 03:52:00,
2013-05-18 23:57:00,55.0,47.7,30.35,WSW,246,0.0,5.0,76,0.00,,,0.00,0.0,meteohub,2013-05-19 03:57:00,